Find Starlink 4683

NORAD ID: 53712 Int'l Des: 2022-107 Owner: SPXS Country: US Constellation: starlink operational
LEOCIRCULAR

現在のビュー

3D地球を読み込み中...

About Starlink 4683

Starlink 4683 (NORAD 53712) is a starlink constellation satellite (v1.5) launched Sep 5, 2022 by SPXS of US. It operates in LEO, CIRCULAR orbit with a mass of 305.00 kg.

Starlink 4683について

説明を読み込み中...

次回通過

Passes for default location (London). Set your location on the main map for personalized predictions.

高度履歴

Loading altitude history...

軌道要素

1 53712U 22107N 26171.31590411 .00000254 00000-0 34059-4 0 9997
2 53712 53.1602 147.8456 0001318 87.4453 272.6689 15.08833479209993
Epoch: Jun 20, 2026 • Age: 20 hours

現在のステータス

高度 546.5 km
速度 7.59 km/s
衛星直下点 -22.20°S, 18.8°E
打ち上げ日 Sep 5, 2022
運用期間 3.7 years
タイプ internet

技術仕様

分類 Payload
質量 305.00 kg
乾燥質量 290.00 kg
総質量 305.00 kg
長さ 0.20 m
直径 2.80 m
スパン 9.00 m
形状 Box + pan
製造者 SPXS
バスタイプ Starlink
フェーズステータス In Orbit
所有者/国 SPXS/US

Most Searched